Regional Weather Roundup
Issued by NWS

Home | Current Version | Previous Version | Graphics & Text | Print | Product List | Glossary On
Versions: 1 2 3 4 5 6 7 8 9 10 11 12 13 14 15 16 17 18 19 20 21 22 23 24 25 26 27 28 29 30 31 32 33 34 35 36 37 38 39 40 41 42 43 44 45 46 47 48 49 50
000
ASUS43 KMPX 021310
RWRMN
WEATHER ROUNDUP FOR MINNESOTA
NATIONAL WEATHER SERVICE TWIN CITIES/CHANHASSEN MN
800 AM CDT WED SEP 02 2015


NOTE: "FAIR" INDICATES FEW OR NO CLOUDS BELOW 12,000 FEET WITH NO
SIGNIFICANT WEATHER AND/OR OBSTRUCTIONS TO VISIBILITY. N/A MEANS
CURRENT SKY AND/OR WEATHER CONDITIONS ARE NOT AVAILABLE.

MNZ060>063-068>070-021400-
   Twin Cities Metro

CITY           SKY/WX    TMP DP  RH WIND       PRES   REMARKS
TWIN CITIES    CLOUDY    71  67  87 E12       29.93R
ST PAUL        CLOUDY    70  68  93 S6        29.94R
CRYSTAL        CLOUDY    71  68  90 E6        29.91R
LAKEVILLE      PTSUNNY   70  66  88 CALM      29.93R
EDEN PRAIRIE   CLOUDY    70  67  90 E8        29.92R
SOUTH ST PAUL  CLOUDY    70  67  91 E3        29.94R
LAKE ELMO      CLOUDY    70  68  94 E6        29.96R
$$
MNZ001>005-007-008-013>017-022>024-027-028-021400-
   Northwest Minnesota

CITY           SKY/WX    TMP DP  RH WIND       PRES   REMARKS
BEMIDJI        SUNNY     63  63 100 CALM      29.91S FOG
HALLOCK        PTSUNNY   68  66  94 S10       29.82S
ROSEAU         SUNNY     66  61  82 S6        29.87R
WARROAD        SUNNY     64  61  88 CALM      29.89R
THIEF RVR FALL SUNNY     66  66 100 SE7       29.87S
CROOKSTON      SUNNY     70  66  88 S9        29.85S FOG
FOSSTON        SUNNY     68  64  88 SE5       29.89S FOG
DETROIT LAKES  SUNNY     68  64  88 SE7       29.91R
MOORHEAD       SUNNY     66  63  88 S9        29.86S
PARK RAPIDS    FOG       68  66  93 SE5       29.92S VSB<1/4
MAHNOMEN       FAIR      67  65  94 SE5       29.88S
$$
MNZ006-009>011-018-025>026-021400-
   North Central Minnesota

CITY           SKY/WX    TMP DP  RH WIND       PRES   REMARKS
BAUDETTE       SUNNY     62  57  83 SE7       29.90S
FLAG ISLAND    SUNNY     68  61  77 SE10      29.88R
INTL FALLS     MOSUNNY   63  59  87 SE7       29.92S
WASKISH        SUNNY     66  64  94 CALM      29.90S
BIG FORK       SUNNY     61  59  94 CALM      29.93R
LONGVILLE      CLOUDY    64  64 100 CALM      29.93S FOG
GRAND RAPIDS     N/A     68  64  88 CALM      29.94R
CRANE LAKE     PTSUNNY   54  54 100 CALM      29.97R
ORR            PTSUNNY   63  59  88 CALM      29.93R
COOK           PTSUNNY   63  59  88 E3        29.97R
WALKER         FAIR      64  64 100 CALM      29.92S FOG
$$
MNZ012-019>021-037-021400-
   Northeast Minnesota

CITY           SKY/WX    TMP DP  RH WIND       PRES   REMARKS
DULUTH         TSTM      65  63  93 E12       29.99R VSB 3/4
ELY            DRIZZLE   57  55  94 CALM      30.01R
HIBBING        CLOUDY    66  62  87 E5        29.95R
EVELETH        CLOUDY    63  61  94 NE5       29.97R
DULUTH HARBOR  LGT RAIN  61  61 100 E7        29.98R
TWO HARBORS    TSTM      70  64  83 E6        29.98R
SILVER BAY     TSTM      68  64  88 N6G18     29.97R
GRAND MARAIS     N/A     56  53  90 CALM      29.97R
G MARAIS ARPRT PTSUNNY   55  48  76 NE3       30.02R
$$
MNZ029>031-032-039>041-046>048-054>057-064-021400-
   West Central Minnesota

CITY           SKY/WX    TMP DP  RH WIND       PRES   REMARKS
FERGUS FALLS   SUNNY     66  64  94 SE6       29.87S
WHEATON        SUNNY     61  59  94 E10       29.87S
MORRIS         SUNNY     66  64  94 SE8       29.87S
ALEXANDRIA     SUNNY     67  65  93 SE5       29.92R
ELBOW LAKE     FAIR      65  63  93 E8        29.89S
WADENA         FOG       64  63  94 NE3       29.91S VSB<1/4
GLENWOOD       SUNNY     64  64 100 E6        29.92R FOG
APPLETON       SUNNY     66  63  88 E6        29.86S
BENSON         SUNNY     68  61  77 SE6       29.89R
ORTONVILLE     SUNNY     64  61  88 E6        29.86R
MADISON        SUNNY     64  63  94 SE6       29.86S
WILLMAR        FAIR      66  64  94 E7        29.90S
$$
MNZ033>034-036-042>043-049>051-058-059-021400-
   Central Minnesota

CITY           SKY/WX    TMP DP  RH WIND       PRES   REMARKS
ST CLOUD       PTSUNNY   67  65  93 SE6       29.91S
SAUK CENTRE    FAIR      65  64  97 CALM      29.92R FOG
PAYNESVILLE    SUNNY     67  65  94 NE3       29.92R
AITKIN         PTSUNNY   73  68  83 CALM      29.92S
PINE RIVER     FOG       66  66 100 CALM      29.96S VSB 1/2
BRAINERD       MOSUNNY   73  70  90 CALM      29.92S FOG
STAPLES        FOG       66  66 100 CALM      29.92S VSB<1/4
LONG PRAIRIE   FAIR      64  64 100 CALM      29.92R
LITTLE FALLS   PTSUNNY   68  63  83 E5        29.91S
LITCHFIELD     SUNNY     68  66  94 SE5       29.91S
BUFFALO        PTSUNNY   67  65  93 NE3       29.93R
MAPLE LAKE     MOSUNNY   67  66  97 E3        29.93R FOG
$$
MNZ037-044-045-052-053-021400-
   East Central Minnesota

CITY           SKY/WX    TMP DP  RH WIND       PRES   REMARKS
PRINCETON      PTSUNNY   70  66  88 CALM      29.93R
MORA           PTSUNNY   68  64  88 E7        29.94S
CAMBRIDGE      CLOUDY    70  63  78 CALM      29.91S
RUSH CITY      CLOUDY    69  65  89 E3        29.93S
MOOSE LAKE     CLOUDY    70  68  94 SE3       29.95R
HINCKLEY       PTSUNNY   70  68  94 E7        29.93F
CLOQUET        LGT RAIN  66  63  88 E3        29.98R
MCGREGOR       CLOUDY    72  70  94 CALM      29.94R
$$
MNZ071>073-080-081-089-090-097-098-021400-
   Southwest Minnesota

CITY           SKY/WX    TMP DP  RH WIND       PRES   REMARKS
MONTEVIDEO     SUNNY     66  66 100 S6        29.89S
GRANITE FALLS  SUNNY     66  65  94 SE6       29.89S
CANBY          SUNNY     63  62  96 CALM      29.87S FOG
MARSHALL       SUNNY     66  61  82 SE6       29.88S
REDWOOD FALLS  SUNNY     68  65  90 S9        29.88R
OLIVIA         SUNNY     64  61  88 SE5       29.89R
PIPESTONE      SUNNY     66  64  94 S7        29.89S FOG
WINDOM         SUNNY     70  66  88 S8        29.91R
WORTHINGTON    SUNNY     68  63  83 S9        29.91R
JACKSON        SUNNY     72  68  88 S13G21    29.93R
TRACY          SUNNY     70  68  94 S10G16    29.88S
SLAYTON        SUNNY     66  66 100 CALM      29.91R FOG
$$
MNZ065>067-074>077-082>085-091>093-021400-
   South Central Minnesota

CITY           SKY/WX    TMP DP  RH WIND       PRES   REMARKS
MANKATO          N/A    N/A N/A N/A MISG        N/A
NEW ULM        SUNNY     68  66  94 S7        29.90S
ST JAMES       SUNNY     72  70  94 S9G16     29.91S
FAIRMONT       SUNNY     72  63  73 S10       29.92S
GLENCOE        SUNNY     67  67 100 CALM      29.91R FOG
FARIBAULT      CLOUDY    70  66  88 S8        29.94R
OWATONNA       SUNNY     72  66  83 SE12      29.94S
WASECA         CLOUDY    72  68  88 S7        29.95R
ALBERT LEA     MOSUNNY   70  70 100 S6        29.95F FOG
$$
MNZ078>079-086>088-094>096-021400-
   Southeast Minnesota

CITY           SKY/WX    TMP DP  RH WIND       PRES   REMARKS
ROCHESTER      CLOUDY    70  68  93 S9        29.97F FOG
RED WING       TSTM      70  66  88 E5        29.92F
STANTON        CLOUDY    71  65  82 CALM      29.92R
DODGE CENTER   CLOUDY    70  66  88 S7        29.96S
WINONA         CLOUDY    73  70  88 N7        29.97
AUSTIN         PTSUNNY   72  70  94 S6        29.95F FOG
PRESTON        LGT RAIN  68  66  93 CALM      29.99S
$$
ABBREVIATIONS USED IN REMARKS
   TC - TEMPERATURES IN CELSIUS
  WCI - WIND CHILL INDEX
   HX - HEAT INDEX
  VSB - VISIBILITY
$$


USA.gov is the U.S. government's official web portal to all federal, state and local government web resources and services.